Location: PSU-Greenbush Astrophysical Observatory
(37.5140°N, 94.9880°W)
Time: 15:57:54
(UTC-06:00)

Altair - Pass Details

Date: 26 January 2020
Orbit: 1502 x 1682 km, 47.2° (Epoch: 19 February)

Event Time Altitude Azimuth Distance (km) Brightness Sun altitude
Rises 13:27:13 0° 298° (WNW) 4,937 10.0 32.3°
Reaches altitude 10° 13:30:27 10° 301° (WNW) 3,947 9.6 32.2°
Maximum altitude 13:40:36 68° 24° (NNE) 1,774 8.1 31.5°
Drops below altitude 10° 13:50:29 10° 107° (ESE) 3,857 9.6 30.9°
Sets 13:53:36 0° 110° (ESE) 4,819 10.1 30.6°
